West Columbia, SC

12:40 PM EST on January 24, 2017 (GMT -0500)
Columbia Metro

Weather History for KCAE - May, 2014

Change the Weather History Date:

Monday, May 5, 2014

  Actual Average Record
Temperature  
Mean Temperature 77 °F 68 °F  
Max Temperature 95 °F 81 °F 95 °F (1955)
Min Temperature 58 °F 56 °F 38 °F (1973)
Degree Days  
Heating Degree Days 0 1  
Month to date heating degree days 2 7  
Since 1 July heating degree days 2552 2538  
Cooling Degree Days 12 5  
Month to date cooling degree days 22 22  
Year to date cooling degree days 130 117  
Growing Degree Days 26 (Base 50)    
Moisture  
Dew Point 53 °F    
Average Humidity 49    
Maximum Humidity 78    
Minimum Humidity 20    
Precipitation  
Precipitation 0.00 in 0.09 in 4.20 in (1991)
Month to date precipitation 0.02 0.46  
Year to date precipitation 13.26 14.00  
Sea Level Pressure  
Sea Level Pressure 29.92 in    
Wind  
Wind Speed 8 mph (WSW)    
Max Wind Speed 23 mph    
Max Gust Speed 28 mph    
Visibility 10 miles    
Events      
T = Trace of Precipitation, MM = Missing Value Source: NWS Daily Summary

Daily Weather History Graph

Daily Weather History Graph

Search for Another Location

Airport or City:

Trip Planner

Search our weather history database for the weather conditions in past years. The results will help you decide how hot, cold, wet, or windy it might be!

Date:

Astronomy

May. 05, 2014 Rise Set
Actual Time 6:31 AM EDT 8:11 PM EDT
Civil Twilight 6:04 AM EDT 8:38 PM EDT
Nautical Twilight 5:32 AM EDT 9:10 PM EDT
Astronomical Twilight 4:58 AM EDT 9:45 PM EDT
Moon 11:48 AM EDT (5/5) 12:54 AM EDT (5/5)
Length of Visible Light 14h 33m
Length of Day
13h 39m
Waxing Crescent, 36% of the Moon is Illuminated
May 5
Waxing Crescent
May 6
First Quarter
May 14
Full
May 21
Last Quarter
May 28
New

Hourly Weather History & Observations

Time (EDT) Temp. Heat Index Dew Point Humidity Pressure Visibility Wind Dir Wind Speed Gust Speed Precip Events Conditions
12:56 AM 70.0 °F - 51.1 °F 51% 29.95 in 10.0 mi WSW 5.8 mph - N/A   Clear
1:56 AM 66.9 °F - 52.0 °F 59% 29.94 in 10.0 mi West 5.8 mph - N/A   Clear
2:56 AM 66.0 °F - 52.0 °F 60% 29.95 in 10.0 mi West 4.6 mph - N/A   Clear
3:56 AM 64.0 °F - 52.0 °F 65% 29.95 in 10.0 mi WSW 5.8 mph - N/A   Clear
4:56 AM 61.0 °F - 52.0 °F 72% 29.96 in 10.0 mi Calm Calm - N/A   Clear
5:56 AM 60.1 °F - 53.1 °F 78% 29.96 in 10.0 mi SSW 3.5 mph - N/A   Clear
6:56 AM 62.1 °F - 52.0 °F 70% 29.97 in 10.0 mi SW 3.5 mph - N/A   Clear
7:56 AM 69.1 °F - 55.9 °F 63% 29.98 in 10.0 mi Calm Calm - N/A   Clear
8:56 AM 75.9 °F - 55.9 °F 50% 29.98 in 10.0 mi Calm Calm - N/A   Clear
9:56 AM 82.9 °F 81.9 °F 54.0 °F 37% 29.98 in 10.0 mi West 12.7 mph - N/A   Clear
10:56 AM 86.0 °F 84.2 °F 54.0 °F 33% 29.97 in 10.0 mi WNW 11.5 mph - N/A   Clear
11:56 AM 88.0 °F - 52.0 °F 29% 29.97 in 10.0 mi NW 9.2 mph 21.9 mph N/A   Clear
12:56 PM 89.1 °F - 52.0 °F 28% 29.95 in 10.0 mi West 9.2 mph - N/A   Clear
1:56 PM 91.9 °F - 52.0 °F 26% 29.93 in 10.0 mi WNW 9.2 mph - N/A   Clear
2:56 PM 93.9 °F - 46.0 °F 19% 29.90 in 10.0 mi West 19.6 mph 24.2 mph N/A   Clear
3:56 PM 95.0 °F - 48.0 °F 20% 29.87 in 8.0 mi West 16.1 mph 23.0 mph N/A   Clear
4:56 PM 93.0 °F - 48.9 °F 22% 29.86 in 7.0 mi WSW 15.0 mph - N/A   Clear
5:56 PM 93.0 °F - 52.0 °F 25% 29.85 in 10.0 mi West 12.7 mph - N/A   Clear
6:56 PM 90.0 °F - 52.0 °F 27% 29.85 in 10.0 mi WSW 10.4 mph - N/A   Clear
7:56 PM 86.0 °F 84.0 °F 53.1 °F 32% 29.86 in 10.0 mi WSW 9.2 mph - N/A   Clear
8:56 PM 81.0 °F 80.5 °F 54.0 °F 39% 29.86 in 10.0 mi SW 6.9 mph - N/A   Partly Cloudy
9:56 PM 78.1 °F - 55.0 °F 45% 29.88 in 10.0 mi WSW 4.6 mph - N/A   Clear
10:56 PM 75.0 °F - 55.0 °F 50% 29.88 in 10.0 mi WSW 6.9 mph - N/A   Clear
11:56 PM 75.9 °F - 55.0 °F 48% 29.88 in 10.0 mi WSW 9.2 mph - N/A   Clear